Weather in Urozhaynoye

Russia / The Kabardino-Balkar Republic     43°41′53″N   44°12′55″E
temp.,
°C
wind,
m/s
gust,
m/s
humid.,
%
clouds,
%
prec.,
mm/h
press.,
hPa
HPBL,
m
22 may, sun
sun2200:00+12wsw22670 0.0 101315
03:00+11sw33735 0.0 101242
06:00+13ssw24685 0.0 101081
09:00+21ssw23480 0.0 1008422
12:00+25e22350 0.0 10051263
15:00+26e33350 0.0 10031530
18:00+24ene22522 0.0 100123
21:00+18n34570 0.0 100245
23 may, mon
mon2300:00+13wnw33850 0.0 100322
03:00+11wnw22866 0.0 100413
06:00+13wnw1182100 0.0 100474
09:00+19nne226687 0.0 1004727
12:00+21nne2259100 0.4 10031246
15:00+16nne2481100 1.6 100380
18:00+14nw4796100 9.4 1004327
21:00+13wnw3697100 15.8 1006251
24 may, tue
tue2400:00+12wsw3597100 4.8 1006180
03:00+12wsw3697100 9.9 1007389
06:00+11n3694100 3.7 1009329
09:00+11nw2388100 4.4 1011376
12:00+13wsw3376100 0.1 1012706
15:00+14wsw4374100 0.4 1012706
18:00+14sw3479100 0.2 1013392
21:00+11sw5893100 1.0 1016224
25 may, wed
wed2500:00+11wsw3791100 0.1 1016193
03:00+11wsw3591100 0.1 1017136
06:00+11sw349299 0.1 1019146
09:00+14wsw337790 1.2 1019413
12:00+17w126172 1.1 10191300
15:00+18nw346048 2.4 10191355
18:00+16n237242 0.8 1021208
21:00+13wsw227798 0.9 102235
26 may, thu
thu2600:00+10wsw34877 0.0 102245
03:00+11wnw2283100 0.0 102326
06:00+13sw117695 0.0 102364
09:00+17sw22605 0.3 1023873
12:00+21wsw01494 0.0 10221749
15:00+21e11454 0.0 10201929
18:00+19ese3564100 0.0 1019117
21:00+14ese236966 0.0 102019